User: anonymous   Login
Location: Unspecified
(0.0000°N, 0.0000°E)
Time: 21:51:22
(UTC+00:00)
Language:

STARLINK-30080 - Orbit

View from above orbital plane
View from above orbital plane
View from above satellite
View from above satellite

Ground track
Ground track

The orbit is defined by the following mean orbital elements,

1 56705U          26145.46345098 +.00000000 +00000-0 +21082-4 0 00000
2 56705  43.0007 189.4781 0001505 274.5342  85.5338 15.27576528    05
Epoch (UTC): 25 May 2026 11:07:22
Eccentricity: 0.0001505
inclination: 43.0007°
perigee height: 482 km
apogee height: 484 km
right ascension of ascending node: 189.4781°
argument of perigee: 274.5342°
revolutions per day: 15.27576528
mean anomaly at epoch: 85.5338°

The dashed part of the orbit path shows where the satellite is in the earth's shadow,  

DLR